[[{"header":{"parameterUnit":"m.s-1","parameterCategory":1,"la1":30.2992,"la2":30.254,"lo1":-89.0895,"lo2":-89.0443,"dy":0.0025,"dx":0.0025,"nx":19,"ny":19,"refTime":"2026-04-07T09:00:00:Z","depth":0,"parameterNumber":2,"parameterNumberName":"U-component_of_WINDS"},"data":[0,0,0,-2.6792,-2.6795,-2.6932,-2.6933,-2.7137,-2.7139,0,0,0,0,0,0,0,0,0,0,0,-2.6768,-2.677,-2.6791,-2.6795,-2.6932,-2.6933,-2.7136,-2.7139,0,0,0,0,0,0,0,0,0,0,0,-2.6767,-2.6769,-2.6772,-2.6796,-2.6932,-2.6933,-2.7136,-2.7022,0,0,0,0,0,0,0,0,0,0,-2.6884,-2.6879,-2.6769,-2.6772,-2.6797,-2.6932,-2.6933,-2.7016,-2.7029,-2.7087,0,-2.7142,0,-2.7144,-2.7154,-2.7155,0,0,0,-2.6783,-2.6868,-2.689,-2.6772,-2.6798,-2.6932,-2.6867,-2.7023,-2.7038,-2.7104,-2.7144,-2.7151,-2.7147,-2.7156,-2.7157,-2.753,-2.7532,0,0,-2.6775,-2.6802,-2.688,-2.69,-2.688,-2.6863,-2.6871,-2.7032,-2.7078,-2.7145,-2.7156,-2.715,-2.7157,-2.7159,-2.7527,-2.753,0,0,0,-2.6762,-2.6797,-2.6814,-2.6892,-2.6915,-2.6867,-2.6877,-2.7071,-2.7074,-2.7158,-2.7153,-2.7158,-2.7161,-2.7525,-2.7528,-2.7673,0,0,0,-2.6757,-2.6789,-2.6811,-2.683,-2.6913,-2.6995,-2.6913,-2.7063,-2.708,-2.7152,-2.7159,-2.7164,-2.7522,-2.7527,-2.7663,-2.7738,0,0,0,-2.6753,-2.6789,-2.6814,-2.6831,-2.689,-2.6991,-2.7003,-2.7066,-2.7078,-2.7155,-2.7164,-2.752,-2.7526,-2.7655,-2.7724,-2.7847,0,0,0,-2.6758,-2.694,-2.6817,-2.7018,-2.689,-2.7078,-2.7002,-2.7141,-2.7224,-2.716,-2.7523,-2.7528,-2.7652,-2.7715,-2.7838,-2.7958,-2.8009,0,0,-2.7003,-2.697,-2.7086,-2.6981,-2.7199,-2.7055,-2.7294,-2.7344,-2.7326,-2.7463,-2.7471,-2.7666,-2.7723,-2.7845,-2.8281,-2.8323,0,0,0,-2.7173,-2.7258,-2.7309,-2.739,-2.7432,-2.7476,-2.7486,-2.7504,-2.7619,-2.7402,-2.774,-2.7773,-2.7844,-2.79,-2.7936,-2.7996,-2.7554,-2.7553,-2.7553,-2.7563,-2.7529,-2.772,-2.7704,-2.7783,-2.7791,-2.7853,-2.7879,-2.7822,-2.7902,-2.7945,-2.8213,-2.8281,-2.8307,-2.837,-2.8001,-2.8002,-2.8002,-2.8003,-2.7922,-2.8038,-2.7957,-2.8114,-2.8077,-2.8208,-2.8223,-2.8178,-2.8296,-2.8179,-2.8239,-2.8119,-2.8353,-2.8407,-2.8013,-2.8011,-2.801,-2.8009,-2.8008,-2.8178,-2.8228,-2.8246,-2.8359,-2.845,-2.8425,-2.8542,-2.8503,-2.8468,-2.8527,-2.8569,-2.8567,-2.8563,-2.8549,-2.855,-2.8551,-2.8551,-2.8552,-2.8553,-2.8438,-2.8453,-2.8557,-2.8616,-2.8663,-2.872,-2.8728,-2.8773,-2.8814,-2.8776,-2.8777,-2.8714,-2.838,-2.83,-2.8567,-2.8565,-2.8563,-2.8561,-2.856,-2.8823,-2.8729,-2.889,-2.8937,-2.9004,-2.9098,-2.9044,-2.914,-2.9171,-2.923,-2.9153,-2.8911,-2.8875,-2.8847,-2.8781,-2.9157,-2.9157,-2.9157,-2.9157,-2.9043,-2.9019,-2.9175,-2.9253,-2.9324,-2.9293,-2.9476,-2.9484,-2.9478,-2.9495,-2.9433,-2.934,-2.9313,-2.9294,-2.9256,-2.9194,-2.9667,-2.9667,-2.9668,-2.928,-2.9262,-2.9426,-2.9418,-2.9467,-2.951,-2.9682,-2.9775,-2.9747,-2.9687,-2.9509,-2.9487,-2.9336,-2.9288,-2.923,-2.9172,-2.9057,0,0]},{"header":{"parameterUnit":"m.s-1","parameterCategory":1,"la1":30.2992,"la2":30.254,"lo1":-89.0895,"lo2":-89.0443,"dy":0.0025,"dx":0.0025,"nx":19,"ny":19,"refTime":"2026-04-07T09:00:00:Z","depth":0,"parameterNumber":3,"parameterNumberName":"V-component_of_WINDS"},"data":[0,0,0,-5.3355,-5.3357,-5.3465,-5.3465,-5.3617,-5.3619,0,0,0,0,0,0,0,0,0,0,0,-5.3335,-5.3336,-5.3355,-5.3358,-5.3465,-5.3465,-5.3617,-5.3619,0,0,0,0,0,0,0,0,0,0,0,-5.3334,-5.3336,-5.3338,-5.3358,-5.3465,-5.3465,-5.3617,-5.353,0,0,0,0,0,0,0,0,0,0,-5.3422,-5.3416,-5.3335,-5.3338,-5.3359,-5.3465,-5.3466,-5.3525,-5.3535,-5.3576,0,-5.3618,0,-5.3621,-5.363,-5.3631,0,0,0,-5.3348,-5.3408,-5.3427,-5.3338,-5.336,-5.3465,-5.3414,-5.353,-5.3542,-5.3589,-5.362,-5.3625,-5.3623,-5.3631,-5.3632,-5.3903,-5.3905,0,0,-5.3342,-5.336,-5.3419,-5.3435,-5.3422,-5.3411,-5.3417,-5.3537,-5.3571,-5.362,-5.3628,-5.3626,-5.3632,-5.3634,-5.3902,-5.3904,0,0,0,-5.3331,-5.3356,-5.3371,-5.3429,-5.3447,-5.3414,-5.3422,-5.3565,-5.3569,-5.3629,-5.3628,-5.3633,-5.3635,-5.39,-5.3903,-5.4005,0,0,0,-5.3327,-5.335,-5.3369,-5.3381,-5.3446,-5.3508,-5.3448,-5.3561,-5.3573,-5.3627,-5.3633,-5.3637,-5.3898,-5.3901,-5.3998,-5.405,0,0,0,-5.3323,-5.3349,-5.3369,-5.3382,-5.3429,-5.3506,-5.3516,-5.3563,-5.3573,-5.3631,-5.3638,-5.3897,-5.3901,-5.3992,-5.404,-5.4126,0,0,0,-5.3324,-5.3458,-5.3371,-5.352,-5.3428,-5.357,-5.3515,-5.3619,-5.3681,-5.3634,-5.3898,-5.3902,-5.399,-5.4033,-5.4119,-5.4201,-5.4237,0,0,-5.3503,-5.348,-5.3566,-5.3492,-5.3653,-5.3552,-5.3727,-5.3766,-5.3754,-5.3853,-5.386,-5.4,-5.4039,-5.4124,-5.4435,-5.4464,0,0,0,-5.3629,-5.3691,-5.373,-5.3791,-5.3825,-5.3858,-5.3868,-5.3882,-5.3966,-5.381,-5.4054,-5.4077,-5.4126,-5.4164,-5.4189,-5.4229,-5.3921,-5.3921,-5.392,-5.3908,-5.3886,-5.4027,-5.4018,-5.4078,-5.4087,-5.4132,-5.4152,-5.4112,-5.417,-5.42,-5.4391,-5.4436,-5.4454,-5.4497,-5.4242,-5.4242,-5.4242,-5.4243,-5.4167,-5.4251,-5.4196,-5.4312,-5.4288,-5.4384,-5.4397,-5.4365,-5.445,-5.4367,-5.4409,-5.4321,-5.4487,-5.4523,-5.425,-5.4249,-5.4248,-5.4247,-5.4247,-5.4347,-5.4383,-5.4399,-5.4484,-5.4551,-5.4536,-5.462,-5.4594,-5.457,-5.4612,-5.4639,-5.4638,-5.4632,-5.4627,-5.4628,-5.4629,-5.4629,-5.463,-5.463,-5.4527,-5.4541,-5.4616,-5.4663,-5.4698,-5.474,-5.4749,-5.4782,-5.4811,-5.4785,-5.4785,-5.4739,-5.4508,-5.445,-5.464,-5.4638,-5.4637,-5.4636,-5.4635,-5.4797,-5.4731,-5.4848,-5.4883,-5.4934,-5.5001,-5.4967,-5.5036,-5.5058,-5.51,-5.5044,-5.4878,-5.4852,-5.4833,-5.4784,-5.505,-5.505,-5.505,-5.505,-5.4948,-5.4933,-5.5045,-5.5102,-5.5155,-5.5136,-5.5264,-5.5272,-5.5269,-5.5281,-5.5239,-5.5173,-5.5154,-5.5139,-5.5113,-5.5067,-5.5399,-5.5399,-5.5399,-5.5112,-5.51,-5.5216,-5.5215,-5.5253,-5.5285,-5.5404,-5.5469,-5.5452,-5.5413,-5.5289,-5.5275,-5.5168,-5.5134,-5.5092,-5.5051,-5.4967,0,0]}]]